Montevideo, MN

1:15 AM CDT on September 26, 2017 (GMT -0500)
Montevideo-Chippewa County

Weather History for KMVE - December, 2012

Change the Weather History Date:

Wednesday, December 5, 2012

  Actual Average Record
Temperature  
Mean Temperature 30 °F -  
Max Temperature 44 °F 32 °F 47 °F (1960)
Min Temperature 15 °F 13 °F -9 °F (1977)
Degree Days  
Heating Degree Days 36    
Moisture  
Dew Point 20 °F    
Average Humidity 63    
Maximum Humidity 86    
Minimum Humidity 46    
Precipitation  
Precipitation 0.00 in - - ()
Sea Level Pressure  
Sea Level Pressure 30.03 in    
Wind  
Wind Speed 12 mph (South)    
Max Wind Speed 23 mph    
Max Gust Speed 32 mph    
Visibility 10 miles    
Events      
Averages and records for this station are not official NWS values.
T = Trace of Precipitation, MM = Missing Value Source: NWS Daily Summary

Daily Weather History Graph

Daily Weather History Graph

Search for Another Location

Airport or City:

Trip Planner

Search our weather history database for the weather conditions in past years. The results will help you decide how hot, cold, wet, or windy it might be!

Date:

Astronomy

Dec. 05, 2012 Rise Set
Actual Time 7:45 AM CST 4:41 PM CST
Civil Twilight 7:12 AM CST 5:14 PM CST
Nautical Twilight 6:35 AM CST 5:51 PM CST
Astronomical Twilight 5:59 AM CST 6:27 PM CST
Moon 11:45 PM CST (12/5) 11:57 AM CST (12/5)
Length of Visible Light 10h 02m
Length of Day
8h 55m
Waning Gibbous, 59% of the Moon is Illuminated
Dec 5
Waning Gibbous
Dec 6
Last Quarter
Dec 13
New
Dec 19
First Quarter
Dec 28
Full

Hourly Weather History & Observations

Time (CST) Temp. Windchill Dew Point Humidity Pressure Visibility Wind Dir Wind Speed Gust Speed Precip Events Conditions
12:14 AM 17.6 °F 12.3 °F 12.2 °F 79% 30.38 in 10.0 mi SSE 3.5 mph - N/A   Clear
12:34 AM 15.8 °F 7.2 °F 10.4 °F 79% 30.37 in 10.0 mi SSE 5.8 mph - N/A   Clear
12:54 AM 15.8 °F 5.1 °F 12.2 °F 86% 30.36 in 10.0 mi SSE 8.1 mph - N/A   Clear
1:14 AM 17.6 °F 7.3 °F 12.2 °F 79% 30.36 in 10.0 mi SE 8.1 mph - N/A   Clear
1:54 AM 17.6 °F 9.3 °F 12.2 °F 79% 30.36 in 10.0 mi South 5.8 mph - N/A   Clear
2:14 AM 17.6 °F 8.2 °F 12.2 °F 79% 30.35 in 10.0 mi SSE 6.9 mph - N/A   Clear
2:34 AM 17.6 °F 8.2 °F 12.2 °F 79% 30.35 in 10.0 mi SSE 6.9 mph - N/A   Clear
2:54 AM 17.6 °F 7.3 °F 12.2 °F 79% 30.34 in 10.0 mi SSE 8.1 mph - N/A   Clear
3:14 AM 17.6 °F 6.4 °F 12.2 °F 79% 30.34 in 10.0 mi SSE 9.2 mph - N/A   Clear
3:34 AM 17.6 °F 6.4 °F 12.2 °F 79% 30.34 in 10.0 mi SSE 9.2 mph - N/A   Clear
3:54 AM 17.6 °F 5.7 °F 12.2 °F 79% 30.32 in 10.0 mi South 10.4 mph - N/A   Clear
4:14 AM 17.6 °F 5.7 °F 12.2 °F 79% 30.32 in 10.0 mi SSE 10.4 mph - N/A   Clear
4:34 AM 17.6 °F 6.4 °F 12.2 °F 79% 30.32 in 10.0 mi South 9.2 mph - N/A   Clear
4:54 AM 17.6 °F 4.3 °F 12.2 °F 79% 30.30 in 10.0 mi South 12.7 mph - N/A   Clear
5:14 AM 17.6 °F 3.7 °F 12.2 °F 79% 30.29 in 10.0 mi SSE 13.8 mph - N/A   Clear
5:34 AM 17.6 °F 3.7 °F 12.2 °F 79% 30.29 in 10.0 mi South 13.8 mph - N/A   Clear
5:54 AM 17.6 °F 3.7 °F 12.2 °F 79% 30.27 in 10.0 mi South 13.8 mph - N/A   Clear
6:14 AM 17.6 °F 3.2 °F 12.2 °F 79% 30.26 in 10.0 mi South 15.0 mph - N/A   Clear
6:34 AM 17.6 °F 3.7 °F 12.2 °F 79% 30.25 in 10.0 mi South 13.8 mph - N/A   Clear
6:54 AM 17.6 °F 4.3 °F 12.2 °F 79% 30.25 in 10.0 mi South 12.7 mph - N/A   Clear
8:33 AM 21.2 °F 6.0 °F 14.0 °F 74% 30.22 in 10.0 mi South 19.6 mph - N/A   Clear
8:54 AM 23.0 °F 8.7 °F 15.8 °F 74% 30.20 in 10.0 mi South 18.4 mph - N/A   Clear
9:14 AM 24.8 °F 10.0 °F 15.8 °F 69% 30.19 in 10.0 mi South 21.9 mph 26.5 mph N/A   Clear
9:34 AM 24.8 °F 10.7 °F 15.8 °F 69% 30.17 in 10.0 mi South 19.6 mph - N/A   Clear
9:54 AM 24.8 °F 10.0 °F 15.8 °F 69% 30.15 in 10.0 mi South 21.9 mph 29.9 mph N/A   Clear
10:14 AM 26.6 °F 12.4 °F 15.8 °F 64% 30.13 in 10.0 mi South 21.9 mph 28.8 mph N/A   Clear
10:34 AM 26.6 °F 12.7 °F 15.8 °F 64% 30.12 in 10.0 mi South 20.7 mph 29.9 mph N/A   Clear
10:54 AM 28.4 °F 15.4 °F 15.8 °F 59% 30.10 in 10.0 mi South 19.6 mph 28.8 mph N/A   Clear
11:14 AM 28.4 °F 14.7 °F 17.6 °F 64% 30.08 in 10.0 mi South 21.9 mph 26.5 mph N/A   Clear
11:34 AM 30.2 °F 18.1 °F 17.6 °F 60% 30.06 in 10.0 mi South 18.4 mph 25.3 mph N/A   Clear
11:54 AM 32.0 °F 20.8 °F 17.6 °F 55% 30.04 in 10.0 mi South 17.3 mph 27.6 mph N/A   Clear
12:14 PM 33.8 °F 22.5 °F 19.4 °F 56% 30.02 in 10.0 mi South 19.6 mph 28.8 mph N/A   Clear
12:34 PM 33.8 °F 21.6 °F 19.4 °F 56% 30.00 in 10.0 mi South 23.0 mph 28.8 mph N/A   Clear
12:54 PM 35.6 °F 24.8 °F 21.2 °F 56% 29.98 in 10.0 mi South 19.6 mph 26.5 mph N/A   Clear
1:14 PM 37.4 °F 27.5 °F 21.2 °F 52% 29.97 in 10.0 mi South 18.4 mph 25.3 mph N/A   Clear
1:34 PM 41.0 °F 32.5 °F 23.0 °F 49% 29.95 in 10.0 mi South 17.3 mph 32.2 mph N/A   Clear
1:54 PM 42.8 °F 35.4 °F 23.0 °F 46% 29.95 in 10.0 mi South 15.0 mph 25.3 mph N/A   Clear
2:14 PM 42.8 °F 34.5 °F 23.0 °F 46% 29.93 in 10.0 mi South 18.4 mph 24.2 mph N/A   Clear
2:34 PM 41.0 °F 33.1 °F 23.0 °F 49% 29.92 in 10.0 mi South 15.0 mph 20.7 mph N/A   Clear
2:54 PM 41.0 °F 32.8 °F 24.8 °F 53% 29.91 in 10.0 mi South 16.1 mph 19.6 mph N/A   Clear
3:14 PM 42.8 °F 35.4 °F 24.8 °F 49% 29.89 in 10.0 mi South 15.0 mph 21.9 mph N/A   Clear
3:34 PM 42.8 °F 36.6 °F 24.8 °F 49% 29.89 in 10.0 mi South 11.5 mph 24.2 mph N/A   Clear
3:54 PM 42.8 °F 36.2 °F 24.8 °F 49% 29.88 in 10.0 mi South 12.7 mph 19.6 mph N/A   Clear
4:14 PM 41.0 °F 33.1 °F 24.8 °F 53% 29.87 in 10.0 mi South 15.0 mph 19.6 mph N/A   Clear
4:34 PM 41.0 °F 33.5 °F 24.8 °F 53% 29.86 in 10.0 mi South 13.8 mph 20.7 mph N/A   Clear
4:54 PM 39.2 °F 31.2 °F 24.8 °F 56% 29.86 in 10.0 mi South 13.8 mph - N/A   Clear
5:15 PM 41.0 °F 33.1 °F 24.8 °F 53% 29.85 in 10.0 mi South 15.0 mph 19.6 mph N/A   Scattered Clouds
5:34 PM 41.0 °F 33.1 °F 24.8 °F 53% 29.83 in 10.0 mi South 15.0 mph 20.7 mph N/A   Scattered Clouds
5:54 PM 41.0 °F 33.5 °F 24.8 °F 53% 29.83 in 10.0 mi South 13.8 mph 20.7 mph N/A   Mostly Cloudy
6:15 PM 42.8 °F 35.8 °F 26.6 °F 53% 29.82 in 10.0 mi South 13.8 mph 19.6 mph N/A   Overcast
6:34 PM 42.8 °F 35.8 °F 26.6 °F 53% 29.81 in 10.0 mi South 13.8 mph 20.7 mph N/A   Overcast
6:54 PM 42.8 °F 35.1 °F 26.6 °F 53% 29.81 in 10.0 mi South 16.1 mph 24.2 mph N/A   Overcast
7:15 PM 42.8 °F 35.8 °F 26.6 °F 53% 29.80 in 10.0 mi South 13.8 mph 21.9 mph N/A   Mostly Cloudy
7:34 PM 42.8 °F 35.1 °F 26.6 °F 53% 29.79 in 10.0 mi South 16.1 mph 24.2 mph N/A   Scattered Clouds
7:54 PM 42.8 °F 35.8 °F 26.6 °F 53% 29.79 in 10.0 mi South 13.8 mph 19.6 mph N/A   Clear
8:15 PM 42.8 °F 36.6 °F 28.4 °F 57% 29.79 in 10.0 mi South 11.5 mph 20.7 mph N/A   Clear
8:34 PM 42.8 °F 35.4 °F 28.4 °F 57% 29.78 in 10.0 mi South 15.0 mph 21.9 mph N/A   Clear
8:54 PM 42.8 °F 35.1 °F 28.4 °F 57% 29.77 in 10.0 mi South 16.1 mph 21.9 mph N/A   Clear
9:14 PM 44.6 °F 37.4 °F 28.4 °F 53% 29.76 in 10.0 mi South 16.1 mph 23.0 mph N/A   Clear
9:34 PM 44.6 °F 37.4 °F 28.4 °F 53% 29.74 in 10.0 mi SSW 16.1 mph 21.9 mph N/A   Clear
9:54 PM 44.6 °F 37.2 °F 28.4 °F 53% 29.73 in 10.0 mi SSW 17.3 mph 25.3 mph N/A   Clear
10:14 PM 44.6 °F 38.1 °F 28.4 °F 53% 29.72 in 10.0 mi SSW 13.8 mph 21.9 mph N/A   Clear
10:34 PM 44.6 °F 38.1 °F 28.4 °F 53% 29.72 in 10.0 mi SSW 13.8 mph 24.2 mph N/A   Clear
10:54 PM 44.6 °F 37.4 °F 28.4 °F 53% 29.71 in 10.0 mi SSW 16.1 mph 21.9 mph N/A   Clear
11:14 PM 44.6 °F 37.8 °F 28.4 °F 53% 29.71 in 10.0 mi SSW 15.0 mph 20.7 mph N/A   Clear
11:34 PM 44.6 °F 38.8 °F 28.4 °F 53% 29.71 in 10.0 mi SSW 11.5 mph - N/A   Clear
11:54 PM 44.6 °F 39.7 °F 28.4 °F 53% 29.72 in 10.0 mi SSW 9.2 mph - N/A   Clear